{"data":{"norad_id":66171,"epoch":"2026-09-20T22:27:44.502336Z","epoch_age_seconds":62751,"freshness":"FRESH","line1":"1 66171U 25240AB  26263.93593174  .00008823  00000+0  27199-3 0  9995","line2":"2 66171  53.1551 231.4962 0001393  90.3775 269.7387 15.34395862 51944","mean_motion":15.34395862,"eccentricity":0.0001393,"inclination_deg":53.1551,"raan_deg":231.4962,"arg_perigee_deg":90.3775,"mean_anomaly_deg":269.7387,"bstar":0.00027199,"rev_number":5194,"period_min":93.848011172491,"perigee_km":461.76260848407,"apogee_km":463.66847000151,"semimajor_km":6840.8525392428,"source":"CELESTRAK","updated_at":"2026-09-21T09:00:35.832534Z"}}